Terminal Aerodrome Forecast
Issued by NWS Grand Rapids, MI

Home | Current Version | Previous Version | Text Only | Print | Product List | Glossary On
Versions: 1 2 3 4 5 6 7 8 9 10 11 12 13 14 15 16 17 18 19 20 21 22 23 24
000
FTUS43 KGRR 031200 AAA
TAFGRR
TAF AMD
KGRR 031256Z 0313/0412 14010KT 1/2SM SN FZFG VV009
     FM031500 14015G24KT 1/2SM SN FZFG OVC005
     FM031800 18015G24KT 1SM -SN BR OVC004
     FM032000 21016G25KT 2SM -SNPL BR OVC003
     FM040000 25014G24KT 6SM -FZDZ BR OVC009
     FM040400 29012KT P6SM OVC025=

USA.gov is the U.S. government's official web portal to all federal, state and local government web resources and services.